Wind_Speed
14 14 13 13 13 14 14 14 15 16 16 16 17 17 17 17 18 18 18 18 18 19 19 19 19 19 20 19 19 19 18 18 18 19 19 19 19 20
15 14 15 15 16 16 16 15 15 16 17 17 17 18 18 19 19 18 18 18 19 19 20 20 20 20 20 19 20 20 19 19 20 19 19 19 19 19
17 17 17 18 18 18 18 17 17 17 18 18 19 19 19 19 19 19 19 19 19 19 20 21 21 20 20 19 20 20 19 19 20 20 20 20 20 20
19 19 19 20 20 20 20 19 19 19 19 19 20 20 20 19 20 20 20 20 20 20 20 20 21 20 20 20 20 20 20 19 19 20 20 20 21 21
20 20 21 22 21 21 21 21 21 21 21 21 21 21 20 20 20 20 21 21 21 21 20 20 21 21 21 20 21 21 21 21 20 20 20 21 21 21
21 22 22 23 22 23 22 22 23 22 22 22 22 21 21 21 21 22 22 22 21 21 22 21 21 22 22 22 21 21 21 21 21 20 21 21 21 21
23 23 23 23 23 23 23 23 23 23 23 22 22 22 22 22 22 22 22 22 22 22 22 22 22 22 22 22 21 21 21 21 21 21 21 21 21 21
24 24 24 24 23 23 23 23 23 24 24 24 23 23 23 23 24 23 23 23 22 23 23 22 22 22 22 22 21 21 21 21 21 21 21 21 21 21
25 25 25 24 24 25 24 23 23 23 24 25 25 24 23 24 24 24 24 23 23 23 24 23 23 22 22 22 22 21 21 21 21 21 22 22 22 21
26 26 26 26 26 26 25 24 24 24 25 25 25 25 25 24 24 25 25 24 24 25 24 24 24 23 23 23 23 22 22 21 22 22 22 22 22 22
28 27 27 27 27 26 25 25 25 25 25 25 25 25 25 25 25 26 25 25 25 25 25 25 24 24 24 24 24 23 22 22 22 23 23 22 22 22
29 29 29 28 27 26 26 26 25 25 25 25 26 26 26 26 26 26 26 26 26 25 25 25 24 24 24 25 25 25 24 23 22 23 23 23 23 23
30 30 29 28 27 26 26 25 24 24 24 25 26 26 26 27 27 27 27 26 26 24 24 24 24 24 25 25 26 26 25 25 24 24 23 23 23 23
30 30 29 28 27 26 26 25 24 24 25 25 26 26 27 27 28 28 28 27 26 25 25 24 24 25 26 26 26 26 26 25 25 24 24 23 23 23
30 29 28 27 26 26 25 25 25 25 25 25 25 25 26 27 27 27 27 27 27 26 25 25 25 25 25 25 25 25 25 25 24 24 25 24 24 23
29 28 27 26 25 25 25 25 25 25 25 26 26 25 26 26 26 26 26 25 25 25 25 25 25 25 25 24 24 24 25 25 25 25 25 25 25 24
28 27 26 25 25 25 25 25 25 26 27 27 27 26 26 26 26 26 25 24 24 24 24 24 25 25 25 24 24 24 25 26 26 27 26 26 26 26
28 27 26 25 26 26 26 26 27 27 26 27 27 26 26 26 25 25 25 24 24 24 24 24 25 25 25 25 24 25 25 27 27 28 27 26 25 25
29 28 27 27 27 27 27 28 28 27 26 26 26 26 26 26 25 25 25 25 24 24 24 25 25 26 25 25 25 26 26 26 27 27 27 26 25 24
28 27 27 27 27 27 27 27 27 27 26 26 26 24 24 24 24 24 24 24 24 24 25 25 25 25 26 26 26 26 25 25 25 26 26 26 25 25
27 27 27 28 27 27 26 26 26 26 26 25 24 24 24 24 24 24 24 24 24 24 24 24 24 25 25 25 25 24 24 23 23 23 24 25 25 25
27 27 27 27 26 26 26 26 26 25 24 23 23 24 24 24 24 24 23 23 24 24 24 24 25 25 25 24 23 23 23 23 24 24 24 24 24 25
26 26 25 25 25 25 25 24 24 24 23 23 23 23 23 24 24 23 23 23 23 24 24 24 24 24 24 24 24 24 24 24 25 25 24 24 24 25
Wind_Direction
300 297 295 294 292 291 287 286 286 285 284 284 282 280 277 278 277 275 276 278 276 274 274 275 274 274 274 277 277 273 269 266 263 259 258 259 259 257
300 297 295 292 291 293 291 288 286 287 285 286 283 281 280 279 281 279 277 278 278 274 271 273 274 275 275 275 275 273 269 267 266 262 260 259 260 259
297 296 293 291 291 290 292 290 289 287 288 286 284 283 282 281 282 282 281 278 279 277 272 272 271 270 272 273 273 271 269 266 265 264 262 260 262 262
294 293 291 291 290 289 289 288 288 287 287 285 285 283 281 280 281 281 282 280 280 277 274 274 270 269 270 272 273 270 268 266 265 265 264 262 263 263
293 292 290 290 289 288 287 287 285 286 287 285 284 283 281 282 282 282 282 282 280 277 273 274 271 268 269 271 272 271 269 266 265 264 264 264 265 264
293 292 291 290 289 287 285 285 285 284 284 283 283 285 283 283 283 282 281 281 278 276 276 272 271 270 270 270 271 270 270 268 267 266 265 265 265 264
294 292 291 289 289 287 285 284 284 284 283 283 283 283 283 283 282 282 281 280 280 279 277 274 273 271 270 270 271 271 269 269 269 267 265 264 264 262
295 293 292 291 289 287 285 285 284 283 283 282 282 283 282 282 280 281 280 278 279 279 278 275 273 273 273 273 273 273 271 269 268 266 265 264 263 261
294 294 292 291 290 288 286 286 284 284 282 281 282 281 281 281 280 279 280 279 278 277 277 275 273 273 271 272 273 273 272 269 267 266 263 264 262 260
292 292 292 292 291 289 287 283 283 282 281 280 282 282 283 282 280 279 279 279 278 277 276 274 273 271 270 270 271 270 269 268 267 266 264 262 260 259
290 291 293 293 292 291 287 286 284 282 281 282 283 283 281 280 279 278 278 278 277 276 274 273 272 269 269 269 269 269 268 267 266 264 263 263 261 260
289 290 290 291 290 288 287 285 284 281 281 281 282 284 282 280 278 278 278 278 278 276 274 273 271 270 268 267 267 267 266 266 266 264 262 262 262 261
290 288 288 289 286 285 286 285 283 281 280 281 283 283 282 281 279 278 277 278 278 276 273 272 272 270 268 266 265 265 264 264 263 264 263 262 261 261
288 288 288 287 285 284 284 283 282 281 282 284 283 282 282 281 279 279 278 277 276 274 273 274 273 271 270 267 264 263 262 264 263 262 261 261 261 261
287 286 285 284 284 283 282 281 281 282 283 282 284 284 282 280 278 278 279 277 274 272 272 274 273 271 271 269 266 264 262 262 263 263 261 259 260 261
288 287 285 284 283 282 282 282 282 282 282 282 282 282 282 280 279 277 275 274 272 271 273 273 272 270 270 269 269 267 265 262 262 261 261 260 260 260
287 286 285 283 282 284 284 284 283 283 283 283 284 281 281 281 279 276 274 274 274 273 272 272 271 271 271 269 269 269 268 265 262 261 260 260 259 259
286 284 284 283 282 282 283 283 282 282 283 283 284 282 280 279 279 277 275 274 274 273 272 271 269 270 271 269 269 270 268 267 264 261 260 260 260 259
286 286 285 284 284 283 282 282 282 283 284 284 284 282 279 279 278 277 274 272 272 272 272 271 270 270 270 270 269 269 268 266 262 259 259 260 261 260
287 287 286 285 284 284 283 282 281 282 284 285 284 280 276 276 278 277 274 272 271 272 273 273 272 271 269 269 269 269 268 267 262 259 258 258 260 260
288 286 285 284 283 283 283 282 282 282 282 282 282 279 276 276 276 276 274 271 270 272 273 274 273 271 270 270 268 266 266 266 263 261 259 258 257 259
289 287 286 285 285 284 283 282 282 282 281 280 279 278 278 277 275 273 272 270 270 271 272 272 272 272 271 269 266 265 265 265 266 265 262 260 260 261
291 289 289 288 287 284 283 283 284 283 281 280 278 277 278 277 275 272 270 270 271 272 272 272 272 271 270 268 266 265 264 264 265 264 263 263 262 263
Height
5856 5855 5854 5853 5852 5851 5850 5849 5848 5846 5845 5844 5842 5841 5840 5839 5839 5837 5836 5835 5834 5833 5833 5832 5831 5830 5829 5828 5827 5826 5824 5824 5824 5824 5824 5824 5824 5824
5853 5852 5851 5849 5848 5847 5845 5844 5843 5842 5840 5839 5837 5836 5835 5834 5833 5832 5831 5830 5828 5827 5827 5826 5825 5824 5823 5822 5821 5820 5819 5819 5818 5818 5818 5818 5819 5819
5849 5848 5846 5845 5843 5842 5840 5839 5837 5836 5835 5834 5832 5831 5830 5828 5827 5826 5824 5824 5823 5821 5820 5820 5819 5818 5817 5816 5815 5814 5814 5813 5813 5812 5812 5812 5813 5813
5845 5843 5842 5840 5838 5837 5835 5834 5832 5830 5829 5828 5827 5825 5824 5822 5821 5820 5818 5817 5816 5815 5814 5813 5813 5812 5811 5811 5809 5809 5808 5807 5807 5807 5807 5807 5807 5807
5839 5838 5836 5834 5833 5831 5829 5828 5826 5825 5823 5822 5821 5819 5818 5817 5816 5814 5813 5811 5810 5808 5807 5807 5806 5805 5805 5804 5804 5803 5802 5802 5801 5801 5801 5801 5801 5801
5834 5832 5830 5828 5827 5825 5823 5822 5820 5819 5817 5816 5815 5813 5812 5811 5809 5808 5807 5805 5803 5802 5801 5800 5799 5799 5798 5798 5797 5796 5796 5795 5795 5795 5795 5795 5795 5796
5828 5825 5823 5822 5820 5818 5816 5815 5813 5812 5811 5809 5808 5807 5806 5805 5803 5801 5800 5799 5797 5796 5795 5793 5792 5792 5791 5791 5790 5790 5790 5789 5789 5789 5789 5789 5789 5790
5821 5819 5817 5815 5813 5811 5809 5808 5807 5805 5804 5802 5801 5800 5799 5797 5796 5794 5793 5792 5791 5789 5788 5787 5786 5785 5785 5784 5784 5783 5783 5783 5782 5782 5782 5782 5783 5783
5815 5812 5810 5808 5806 5804 5802 5801 5800 5798 5797 5796 5794 5793 5791 5790 5788 5787 5786 5785 5784 5782 5781 5780 5779 5778 5778 5778 5777 5777 5776 5776 5776 5776 5776 5776 5776 5777
5808 5806 5803 5801 5799 5797 5795 5794 5792 5791 5789 5788 5787 5785 5784 5782 5781 5780 5779 5778 5777 5775 5774 5773 5772 5771 5771 5771 5770 5770 5769 5769 5769 5769 5769 5769 5770 5770
5800 5798 5796 5793 5791 5789 5788 5786 5784 5783 5781 5780 5779 5777 5776 5774 5773 5772 5771 5770 5769 5768 5766 5766 5765 5764 5764 5764 5763 5763 5762 5762 5762 5762 5763 5763 5763 5764
5791 5789 5787 5785 5783 5781 5780 5778 5777 5775 5774 5773 5771 5770 5768 5766 5765 5764 5762 5761 5760 5760 5758 5758 5757 5756 5756 5756 5756 5755 5755 5755 5755 5755 5756 5756 5757 5757
5782 5780 5778 5776 5775 5773 5772 5770 5769 5767 5766 5765 5764 5762 5760 5758 5757 5755 5754 5753 5752 5751 5751 5750 5749 5749 5748 5749 5748 5748 5748 5748 5748 5748 5748 5749 5749 5750
5774 5771 5770 5768 5766 5765 5763 5762 5761 5760 5758 5757 5755 5754 5752 5750 5748 5747 5746 5745 5744 5744 5743 5742 5742 5741 5741 5740 5740 5740 5740 5740 5740 5741 5741 5742 5742 5743
5764 5762 5761 5759 5757 5756 5755 5754 5753 5751 5750 5748 5747 5745 5743 5741 5739 5738 5737 5736 5736 5736 5735 5734 5734 5733 5733 5732 5732 5733 5733 5733 5733 5734 5734 5735 5735 5736
5756 5754 5752 5750 5749 5748 5747 5746 5744 5743 5742 5740 5738 5737 5735 5732 5731 5730 5729 5728 5728 5728 5727 5726 5726 5725 5725 5725 5725 5725 5725 5726 5726 5726 5727 5727 5728 5728
5747 5745 5744 5742 5741 5740 5738 5737 5736 5734 5733 5732 5730 5728 5726 5725 5723 5722 5721 5721 5720 5720 5720 5719 5718 5717 5717 5717 5717 5718 5718 5718 5718 5719 5719 5720 5720 5721
5738 5736 5735 5734 5732 5731 5730 5728 5727 5726 5724 5723 5721 5719 5718 5717 5715 5714 5713 5713 5713 5712 5712 5711 5710 5710 5710 5710 5710 5710 5710 5710 5710 5710 5711 5712 5713 5713
5729 5727 5726 5724 5723 5722 5721 5720 5718 5717 5715 5714 5712 5711 5709 5708 5707 5706 5705 5704 5704 5704 5704 5703 5702 5702 5702 5702 5702 5701 5701 5701 5701 5702 5703 5704 5705 5705
5719 5718 5716 5715 5714 5712 5711 5710 5709 5707 5706 5705 5703 5702 5700 5699 5698 5698 5697 5696 5696 5696 5695 5694 5694 5693 5693 5693 5693 5693 5693 5693 5693 5694 5695 5695 5696 5696
5710 5708 5706 5705 5703 5702 5701 5700 5699 5698 5697 5696 5694 5693 5692 5691 5690 5689 5689 5688 5688 5688 5687 5687 5685 5685 5684 5684 5685 5685 5685 5685 5685 5686 5687 5687 5688 5689
5701 5699 5697 5695 5694 5692 5691 5690 5689 5688 5688 5687 5686 5685 5684 5683 5682 5681 5681 5680 5680 5680 5679 5678 5677 5676 5676 5676 5677 5677 5678 5678 5678 5678 5679 5680 5680 5681
5692 5690 5688 5686 5685 5683 5682 5681 5680 5679 5679 5678 5677 5676 5675 5675 5674 5673 5673 5673 5672 5671 5671 5670 5669 5668 5668 5669 5669 5670 5670 5670 5670 5671 5671 5672 5672 5673